Location: Helion Bumpstead
(52.0500°N, 0.4000°E)
Time: 21:06:02
(UTC+00:00)

Cosmos 2322 Rocket - Pass Details

Date: 15 November 2025
Orbit: 830 x 851 km, 71.0° (Epoch: 06 December)

Event Time Altitude Azimuth Distance (km) Brightness Sun altitude
Exits shadow 03:57:42 19° 358° (N) 1,923 4.1 -30.6°
Drops below altitude 10° 03:59:58 10° 17° (NNE) 2,489 4.9 -30.3°
Sets 04:02:54 0° 31° (NNE) 3,429 5.9 -29.8°
